Spokane, WA

3:10 PM PST on December 11, 2017 (GMT -0800)
Spokane International

Weather History for KGEG - July, 2013

Change the Weather History Date:

Monday, July 29, 2013

  Actual Average Record
Temperature  
Mean Temperature 70 °F 72 °F  
Max Temperature 84 °F 86 °F 100 °F (2014)
Min Temperature 55 °F 58 °F 45 °F (1917)
Degree Days  
Heating Degree Days 0 0  
Month to date heating degree days 0 31  
Since 1 June heating degree days 140 167  
Since 1 July heating degree days 0 31  
Cooling Degree Days 5 7  
Month to date cooling degree days 264 164  
Year to date cooling degree days 342 227  
Since 1 June cooling degree days 312 213  
Growing Degree Days 20 (Base 50)    
Moisture  
Dew Point 38 °F    
Average Humidity 37    
Maximum Humidity 57    
Minimum Humidity 17    
Precipitation  
Precipitation 0.00 in 0.02 in 0.30 in (1886)
Month to date precipitation T 0.61  
Year to date precipitation 6.79 9.49  
Snow  
Snow 0.00 in 0.00 in 0.00 in (2002)
Month to date snowfall 0.0 0.0  
Since 1 June snowfall 0.0 0.0  
Since 1 July snowfall 0.0 0.0  
Snow Depth 0.00 in    
Sea Level Pressure  
Sea Level Pressure 29.88 in    
Wind  
Wind Speed 3 mph (SSW)    
Max Wind Speed 13 mph    
Max Gust Speed 16 mph    
Visibility 10 miles    
Events      
T = Trace of Precipitation, MM = Missing Value Source: NWS Daily Summary

Daily Weather History Graph

Daily Weather History Graph

Search for Another Location

Airport or City:

Trip Planner

Search our weather history database for the weather conditions in past years. The results will help you decide how hot, cold, wet, or windy it might be!

Date:

Astronomy

Jul. 29, 2013 Rise Set
Actual Time 5:24 AM PDT 8:28 PM PDT
Civil Twilight 4:47 AM PDT 9:04 PM PDT
Nautical Twilight 4:00 AM PDT 9:51 PM PDT
Astronomical Twilight 3:02 AM PDT 10:49 PM PDT
Moon 11:49 PM PDT (7/29) 1:48 PM PDT (7/29)
Length of Visible Light 16h 16m
Length of Day
15h 03m
Waning Gibbous, 50% of the Moon is Illuminated
Jul 29
Waning Gibbous
Aug 6
New
Aug 14
First Quarter
Aug 20
Full
Aug 28
Last Quarter

Hourly Weather History & Observations

Time (PDT) Temp. Dew Point Humidity Pressure Visibility Wind Dir Wind Speed Gust Speed Precip Events Conditions
12:53 AM 63.0 °F 39.9 °F 43% 29.83 in 10.0 mi SW 6.9 mph - N/A   Partly Cloudy
1:53 AM 60.1 °F 39.0 °F 46% 29.82 in 10.0 mi WSW 3.5 mph - N/A   Partly Cloudy
2:53 AM 57.0 °F 42.1 °F 57% 29.83 in 10.0 mi Calm Calm - N/A   Clear
3:53 AM 59.0 °F 37.9 °F 46% 29.84 in 10.0 mi SSE 3.5 mph - N/A   Clear
4:53 AM 55.9 °F 37.9 °F 51% 29.86 in 10.0 mi Calm Calm - N/A   Partly Cloudy
5:53 AM 55.0 °F 37.0 °F 51% 29.87 in 10.0 mi SSE 6.9 mph - N/A   Mostly Cloudy
6:53 AM 55.9 °F 37.9 °F 51% 29.89 in 10.0 mi SSE 5.8 mph - N/A   Mostly Cloudy
7:53 AM 59.0 °F 39.0 °F 48% 29.90 in 10.0 mi SSE 5.8 mph - N/A   Mostly Cloudy
8:53 AM 62.1 °F 41.0 °F 46% 29.91 in 10.0 mi Variable 3.5 mph - N/A   Mostly Cloudy
9:53 AM 66.9 °F 42.1 °F 40% 29.91 in 10.0 mi Calm Calm - N/A   Mostly Cloudy
10:53 AM 71.1 °F 43.0 °F 36% 29.91 in 10.0 mi Calm Calm - N/A   Mostly Cloudy
11:53 AM 75.9 °F 42.1 °F 30% 29.90 in 10.0 mi Calm Calm - N/A   Scattered Clouds
12:53 PM 78.1 °F 39.0 °F 25% 29.89 in 10.0 mi Variable 3.5 mph - N/A   Mostly Cloudy
1:53 PM 80.1 °F 39.0 °F 23% 29.89 in 10.0 mi Calm Calm - N/A   Scattered Clouds
2:53 PM 81.0 °F 37.9 °F 21% 29.88 in 10.0 mi SSW 3.5 mph - N/A   Scattered Clouds
3:53 PM 82.0 °F 37.0 °F 20% 29.88 in 10.0 mi South 6.9 mph - N/A   Scattered Clouds
4:53 PM 82.9 °F 36.0 °F 19% 29.87 in 10.0 mi WSW 3.5 mph - N/A   Scattered Clouds
5:53 PM 82.9 °F 35.1 °F 18% 29.86 in 10.0 mi West 4.6 mph - N/A   Scattered Clouds
6:53 PM 82.0 °F 34.0 °F 18% 29.86 in 10.0 mi WSW 5.8 mph - N/A   Scattered Clouds
7:53 PM 80.6 °F 35.6 °F 20% 29.87 in 10.0 mi South 3.5 mph - N/A   Scattered Clouds
8:53 PM 78.1 °F 35.1 °F 21% 29.88 in 10.0 mi Calm Calm - N/A   Scattered Clouds
9:53 PM 72.0 °F 37.0 °F 28% 29.88 in 10.0 mi Calm Calm - N/A   Scattered Clouds
10:53 PM 69.1 °F 39.0 °F 33% 29.89 in 10.0 mi WSW 4.6 mph - N/A   Scattered Clouds
11:53 PM 69.1 °F 39.0 °F 33% 29.90 in 10.0 mi Calm Calm - N/A   Scattered Clouds